Location: Bédeille
(43.0872°N, 1.1041°E)
Time: 12:41:33
(UTC+00:00)

Cosmos 2058 Rocket - Pass Details

Date: 03 February 2023
Orbit: 610 x 637 km, 82.5° (Epoch: 19 March)

Event Time Altitude Azimuth Distance (km) Brightness Sun altitude
Rises 18:02:06 0° 3° (N) 2,896 6.3 -9.8°
Reaches altitude 10° 18:04:39 10° 17° (NNE) 1,990 5.4 -10.3°
Maximum altitude 18:08:20 25° 73° (ENE) 1,248 4.0 -11.0°
Drops below altitude 10° 18:12:01 10° 130° (SE) 1,991 5.3 -11.6°
Sets 18:14:33 0° 143° (SE) 2,898 6.2 -12.1°
